Location: Unspecified
(0.0000°N, 0.0000°E)
Time: 18:21:51
(UTC+00:00)

Starlink L9 Placeholder - Visible Passes

Search period start: 06 July 2020 00:00
Search period end: 16 July 2020 00:00
Orbit: 210 x 366 km, 53.0° (Epoch: 08 July)

Date Brightness Start Highest point End Pass type
(mag) Time Alt. Az. Time Alt. Az. Time Alt. Az.
11 Jul 5.4 19:50:30 10° NW 19:51:16 17° NW 19:51:16 17° NW visible
12 Jul 5.7 19:55:38 10° WNW 19:56:27 15° W 19:56:27 15° W visible
14 Jul 2.4 18:30:43 10° NNW 18:33:17 72° NE 18:36:03 10° SE visible
15 Jul 4.4 18:35:36 10° WNW 18:37:53 27° SW 18:40:19 10° S visible
